Regional Weather Roundup
Issued by NWS Cleveland, OH

Home | Current Version | Previous Version | Text Only | Print | Product List | Glossary Off
Versions: 1 2 3 4 5 6 7 8 9 10 11 12 13 14 15 16 17 18 19 20 21 22 23 24 25 26 27 28 29 30 31 32 33 34 35 36 37 38 39 40 41 42 43 44 45 46 47 48 49 50

870
ASUS41 KCLE 211910
RWRCLE
OHIO REGIONAL WEATHER ROUNDUP
NATIONAL WEATHER SERVICE WILMINGTON, OH
200 PM EST TUE NOV 21 2017

NOTE: "FAIR" INDICATES FEW OR NO CLOUDS BELOW 12,000 FEET WITH NO
SIGNIFICANT WEATHER AND/OR OBSTRUCTIONS TO VISIBILITY.

OHZ001>008-015>018-024>027-034-035-043-044-212000-
   NORTHWEST OHIO

CITY           SKY/WX    TMP DP  RH WIND       PRES   REMARKS
DEFIANCE       FAIR      49  33  54 SW13G21   29.81R
FINDLAY        FAIR      52  32  46 SW21G31   29.82R
TOLEDO EXPRESS FAIR      51  34  52 W22G31    29.79R
TOLEDO EXEC    FAIR      51  34  52 SW23G30   29.81R
LIMA           FAIR      51  35  54 SW20G30   29.84R
$$

OHZ009>014-019>023-028>033-038-089-212000-
   NORTHEAST OHIO

CITY           SKY/WX    TMP DP  RH WIND       PRES   REMARKS
CLE-HOPKINS    PTSUNNY   55  31  39 SW23G30   29.83S
CLE-LAKEFRONT  FAIR      55  29  36 S16G25    29.80S
CUY CO. ARPT   MOSUNNY   55  28  35 SW17G23   29.81
LORAIN-ELYRIA  FAIR      51  29  42 SW24G32   29.82R
ASHTABULA      FAIR      53  28  38 SW21G33   29.82S
AKRON-CANTON   PTSUNNY   52  27  38 SW20G32   29.86R
WOOSTER        FAIR      53  28  38 SW20G29   29.84S
MANSFIELD      FAIR      52  32  46 S18G28    29.84R
YOUNGSTOWN     PTSUNNY   54  27  35 SW15G28   29.85S
$$

OHZ042-051>053-060>062-070>072-077>081-212000-
  SOUTHWEST OHIO

CITY           SKY/WX    TMP DP  RH WIND       PRES   REMARKS
CINC-COVINGTON PTSUNNY   55  32  41 SW12G24   29.92F
CINC-LUNKEN    FAIR      57  31  37 SW18G25   29.93F
HAMILTON       FAIR      57  32  38 SW14G22   29.92F
DAYTON         PTSUNNY   54  33  45 SW21G28   29.88F
WRIGHT-PAT AFB FAIR      55  29  36 SW22      29.88S
DAYTON GENERAL FAIR      54  30  40 SW15G22   29.89F
WILMINGTON     FAIR      54  31  41 SW23G32   29.89F
$$

OHZ036-037-039>041-045>050-054>059-063>069-073>076-082>088-212000-
  CENTRAL AND SOUTHEAST OHIO

CITY           SKY/WX    TMP DP  RH WIND       PRES   REMARKS
COLUMBUS       FAIR      54  29  38 SW17G26   29.90F
OSU AIRPORT    FAIR      53  32  44 SW14G25   29.89R
BOLTON FIELD   SUNNY     54  30  40 SW25G33   29.90F
RICKENBACK AFB FAIR      53  30  41 SW16G28   29.90F
NEWARK         FAIR      55  27  34 SW13G26   29.89F
MARION         FAIR      52  31  44 SW25G32   29.86R
LANCASTER      FAIR      55  28  35 SW17G25   29.91F
ZANESVILLE     FAIR      56  30  37 SW14G26   29.91F
NEW PHILLY     FAIR      55  27  34 SW13G28   29.90F
$$




USA.gov is the U.S. government's official web portal to all federal, state and local government web resources and services.